GW4151 Weather Reports


time (UTC)temp
F
wind
direction
speed
knots
gust
knots
rain 1hr
in
rain 24hr
in
rain mn
in
humidity
%
barometer
mb
20260505083526 50 254 0.9 2.6 0.00 0.01 0.01 70 982.4
20260505082021 51 277 3.5 5.2 0.00 0.01 0.01 66 982.0
20260505080516 52 272 4.3 6.1 0.00 0.01 0.01 63 981.4
20260505075012 52 269 3.5 6.1 0.00 0.01 0.01 61 981.6
20260505073509 52 334 3.5 6.1 0.00 0.01 0.01 65 981.6
20260505072005 52 241 1.7 5.2 0.00 0.01 0.01 67 981.4
20260505070502 51 232 0.9 5.2 0.00 0.01 0.01 79 981.5
20260505064956 51 231 3.5 5.2 0.00 0.01 0.01 84 981.4
20260505063454 51 225 0.9 1.7 0.00 0.01 0.01 88 981.1
20260505061950 52 222 0.9 1.7 0.05 0.01 0.01 88 981.1
20260505060449 53 178 0.0 1.7 0.00 0.00 0.00 86 980.7
20260505054949 53 257 3.5 5.2 0.00 0.00 0.00 86 981.0
20260505053447 53 187 1.7 3.5 0.00 0.00 0.00 86 980.8
20260505051943 54 221 2.6 5.2 0.00 0.00 0.00 85 980.5
20260505050442 54 199 1.7 3.5 0.00 0.00 0.00 85 980.2
20260505040428 57 241 2.6 7.8 0.00 0.00 0.00 80 979.7
20260505034924 56 212 4.3 12.2 0.00 0.01 0.01 79 979.7
20260505033420 63 310 9.6 13.9 0.00 0.01 0.01 71 980.1
20260505031917 63 235 1.7 5.2 0.00 0.01 0.01 73 979.0
20260505030413 62 191 4.3 6.1 0.00 0.01 0.01 74 978.5
20260505024911 62 201 2.6 6.1 0.00 0.01 0.01 73 978.1
20260505023408 62 149 2.6 7.0 0.00 0.01 0.01 72 978.1
20260505021904 62 214 4.3 7.8 0.00 0.01 0.01 72 977.9
20260505020404 62 158 5.2 8.7 0.00 0.01 0.01 72 978.0
20260505014901 63 165 7.0 11.3 0.00 0.01 0.01 74 977.7
20260505013358 66 151 4.3 7.8 0.00 0.00 0.00 65 978.4
20260505011855 68 223 7.8 13.9 0.00 0.00 0.00 63 977.5
20260505010350 69 196 4.3 7.8 0.00 0.00 0.00 60 977.2
20260505004847 69 211 4.3 9.6 0.00 0.00 0.00 60 977.2
20260505003344 70 190 2.6 7.8 0.00 0.00 0.00 57 977.4
20260505001841 71 347 3.5 9.6 0.00 0.00 0.00 53 976.9
20260505000338 73 217 7.8 13.0 0.00 0.00 0.00 44 977.1
20260504234834 74 206 1.7 6.1 0.00 0.00 0.00 39 976.9
20260504233330 75 158 1.7 5.2 0.00 0.00 0.00 38 976.9
20260504231826 75 146 1.7 7.8 0.00 0.00 0.00 38 977.2
20260504230323 76 210 2.6 6.1 0.00 0.00 0.00 37 977.7
20260504224821 74 183 2.6 7.0 0.00 0.00 0.00 39 978.0
20260504223315 75 186 1.7 6.1 0.00 0.00 0.00 38 978.3
20260504221814 76 199 2.6 7.0 0.00 0.00 0.00 38 978.3
20260504220309 74 170 5.2 9.6 0.00 0.00 0.00 38 978.5
20260504214804 75 233 4.3 12.2 0.00 0.00 0.00 39 978.7
20260504213300 76 166 5.2 7.8 0.00 0.00 0.00 39 978.7
20260504211757 75 182 4.3 7.8 0.00 0.00 0.00 38 979.1
20260504210254 75 222 3.5 8.7 0.00 0.00 0.00 41 979.1
20260504204752 75 239 7.8 12.2 0.00 0.00 0.00 39 979.5
20260504203252 75 281 5.2 13.9 0.00 0.00 0.00 40 979.7
20260504201752 75 206 7.8 11.3 0.00 0.00 0.00 40 979.7
20260504200248 75 194 3.5 11.3 0.00 0.00 0.00 39 980.0
20260504194744 74 177 6.1 13.9 0.00 0.00 0.00 41 980.1
20260504193240 74 184 7.0 11.3 0.00 0.00 0.00 41 980.1
20260504191735 74 164 5.2 13.0 0.00 0.00 0.00 41 980.2
20260504190235 73 206 9.6 13.0 0.00 0.00 0.00 41 980.3
20260504184730 74 289 5.2 8.7 0.00 0.00 0.00 38 980.5
20260504183225 73 185 6.1 11.3 0.00 0.00 0.00 35 980.4
20260504181724 74 301 4.3 11.3 0.00 0.00 0.00 35 980.4
20260504180224 73 230 7.8 13.0 0.00 0.00 0.00 33 980.7
20260504174721 74 334 5.2 12.2 0.00 0.00 0.00 32 980.7
20260504173218 74 183 6.1 13.9 0.00 0.00 0.00 31 980.8
20260504171714 75 79 5.2 13.0 0.00 0.00 0.00 33 981.0
20260504170211 74 144 7.0 9.6 0.00 0.00 0.00 35 981.2
20260504160158 71 227 5.2 12.2 0.00 0.00 0.00 40 981.9
20260504150149 66 193 2.6 8.7 0.00 0.00 0.00 53 982.5
20260504140134 63 219 6.1 7.8 0.00 0.00 0.00 57 983.0
20260504130123 60 153 3.5 6.1 0.00 0.00 0.00 66 983.6
20260504120115 55 211 4.3 6.1 0.00 0.00 0.00 74 983.3